[[{"header":{"parameterUnit":"m.s-1","parameterCategory":1,"la1":30.2991,"la2":30.254,"lo1":-89.0895,"lo2":-89.0444,"dy":0.0017,"dx":0.0017,"nx":28,"ny":28,"refTime":"2026-01-04T09:00:00:Z","depth":0,"parameterNumber":2,"parameterNumberName":"U-component_of_WINDS"},"data":[0,0,0,0,0,0,0,0,0,0,0,0,0,0,0,0,0,0,0,0,0,0,0,0,0,0,0,0,0,0,0,0,0,0,0,0,0,0,0,0,0,0,0,0,0,0,0,0,0,0,0,0,0,0,0,0,0,0,-2.4296,-2.4296,0,-2.4333,-2.4333,-2.4334,-2.4291,-2.4289,-2.4288,-2.4286,-2.4327,-2.4329,-2.4332,0,0,0,0,0,0,0,0,0,0,0,0,0,-2.4189,-2.4192,-2.4295,-2.4296,-2.4296,-2.4333,-2.4333,-2.4334,-2.4291,-2.4289,-2.4287,-2.4285,-2.4326,-2.4329,-2.4332,0,0,0,0,0,0,0,0,0,0,0,0,0,-2.4232,-2.4192,-2.4295,-2.4279,-2.4278,-2.4333,-2.4333,-2.4334,-2.4292,-2.4289,-2.4287,-2.4284,-2.4325,-2.4329,-2.4333,-2.4405,0,0,-2.4345,-2.4346,0,0,0,0,0,0,0,0,-2.423,-2.4236,-2.4281,-2.4281,-2.428,-2.4305,-2.4311,-2.4358,-2.4292,-2.4287,-2.4286,-2.4283,-2.4322,-2.4326,-2.4338,-2.4407,-2.4409,-2.4345,-2.4347,-2.4349,-2.435,0,0,0,0,0,0,0,-2.4227,-2.4234,-2.431,-2.4282,-2.4281,-2.4271,-2.4275,-2.432,-2.4317,-2.4287,-2.4284,-2.4289,-2.4321,-2.4334,-2.4339,-2.441,-2.4345,-2.4348,-2.4351,-2.4352,-2.454,-2.4543,0,0,0,0,0,0,-2.4225,-2.4232,-2.4309,-2.4311,-2.4248,-2.4275,-2.4279,-2.4299,-2.4317,-2.4317,-2.4291,-2.4287,-2.4329,-2.4334,-2.434,-2.4426,-2.4349,-2.4353,-2.4355,-2.4538,-2.4541,-2.4544,0,0,0,0,0,0,-2.4223,-2.4233,-2.4308,-2.4271,-2.428,-2.4279,-2.4303,-2.4301,-2.4315,-2.432,-2.4319,-2.4305,-2.4327,-2.4334,-2.4389,-2.4427,-2.4354,-2.4358,-2.4535,-2.4539,-2.4542,-2.4599,0,0,0,0,0,0,-2.422,-2.4232,-2.4259,-2.4272,-2.4282,-2.4356,-2.4305,-2.4304,-2.4321,-2.4316,-2.4333,-2.4333,-2.4326,-2.4384,-2.4393,-2.4431,-2.4361,-2.4531,-2.4536,-2.4541,-2.4594,-2.4605,-2.4614,0,0,0,0,0,-2.4217,-2.4274,-2.4261,-2.427,-2.4315,-2.4358,-2.4364,-2.4353,-2.4324,-2.4352,-2.4355,-2.4333,-2.4421,-2.439,-2.44,-2.444,-2.4529,-2.4535,-2.4541,-2.459,-2.4603,-2.4614,0,0,0,0,0,0,-2.4267,-2.4276,-2.4261,-2.4324,-2.434,-2.4351,-2.4385,-2.4367,-2.4393,-2.4387,-2.4374,-2.4378,-2.4436,-2.4443,-2.4408,-2.4511,-2.447,-2.4479,-2.4504,-2.4517,-2.4526,-2.4524,-2.4364,0,0,0,0,0,-2.4285,-2.4318,-2.4324,-2.438,-2.4388,-2.4385,-2.4404,-2.4394,-2.4411,-2.4418,-2.4425,-2.4443,-2.4475,-2.4496,-2.4526,-2.4595,-2.4598,-2.4627,-2.4637,-2.4645,-2.4653,-2.469,-2.4704,-2.4564,-2.4564,-2.4563,0,0,-2.4324,-2.4333,-2.4354,-2.439,-2.4401,-2.4437,-2.4392,-2.4431,-2.4457,-2.4424,-2.4476,-2.4482,-2.4501,-2.4564,-2.4591,-2.4571,-2.4692,-2.4653,-2.466,-2.4663,-2.4698,-2.4711,-2.4723,-2.4568,-2.4567,-2.4566,0,0,-2.4412,-2.4421,-2.4468,-2.4481,-2.4499,-2.4496,-2.4508,-2.4521,-2.4523,-2.4575,-2.4551,-2.4582,-2.4637,-2.4652,-2.4667,-2.476,-2.4741,-2.477,-2.4822,-2.4859,-2.487,-2.488,-2.4913,-2.4925,-2.4778,-2.4778,-2.4778,0,-2.4457,-2.4508,-2.4495,-2.4536,-2.4552,-2.4523,-2.4571,-2.4584,-2.4611,-2.4624,-2.4601,-2.4669,-2.468,-2.4746,-2.4768,-2.4781,-2.4794,-2.4768,-2.4869,-2.4879,-2.4888,-2.492,-2.4932,-2.4781,-2.4781,-2.478,-2.478,0,-2.4564,-2.46,-2.4636,-2.4662,-2.4682,-2.4727,-2.4721,-2.4743,-2.4732,-2.4732,-2.4786,-2.4798,-2.4829,-2.4844,-2.4834,-2.4908,-2.4895,-2.4871,-2.483,-2.4905,-2.4935,-2.4947,-2.4786,-2.4785,-2.4784,-2.4783,0,0,-2.4685,-2.4702,-2.4716,-2.4727,-2.4745,-2.4773,-2.4816,-2.4846,-2.4866,-2.4886,-2.4922,-2.4969,-2.4947,-2.4963,-2.4954,-2.4987,-2.506,-2.4958,-2.4959,-2.4977,-2.5144,-2.5162,-2.5176,-2.5047,-2.505,-2.5052,-2.5142,0,-2.4773,-2.4847,-2.4836,-2.4907,-2.4941,-2.4914,-2.4951,-2.4967,-2.4968,-2.4997,-2.4999,-2.5033,-2.5001,-2.5011,-2.5041,-2.5045,-2.5094,-2.5038,-2.5082,-2.5083,-2.5078,-2.5192,-2.5211,-2.5296,-2.5154,-2.5156,-2.5157,0,-2.4886,-2.4909,-2.4983,-2.4995,-2.5009,-2.5043,-2.507,-2.5097,-2.5115,-2.5113,-2.5132,-2.5118,-2.5162,-2.512,-2.518,-2.5143,-2.516,-2.5165,-2.5168,-2.5172,-2.5125,-2.5199,-2.5323,-2.5336,-2.5175,-2.5174,-2.5172,0,-2.4966,-2.5016,-2.5067,-2.5078,-2.5093,-2.5118,-2.5126,-2.514,-2.5159,-2.5183,-2.5195,-2.5224,-2.524,-2.5263,-2.5256,-2.5226,-2.5319,-2.5276,-2.532,-2.532,-2.5341,-2.534,-2.5469,-2.5352,-2.5352,-2.5351,-2.5351,0,-2.5066,-2.5113,-2.5103,-2.5135,-2.5187,-2.5174,-2.5226,-2.5231,-2.5244,-2.5276,-2.5255,-2.5286,-2.5276,-2.5307,-2.5302,-2.5354,-2.5361,-2.5362,-2.536,-2.5364,-2.5364,-2.5375,-2.5369,-2.5355,-2.5354,-2.5353,-2.5353,0,-2.5165,-2.5161,-2.5214,-2.5225,-2.5228,-2.5266,-2.5275,-2.5305,-2.5305,-2.5346,-2.5355,-2.5355,-2.539,-2.5386,-2.5426,-2.5423,-2.5487,-2.5478,-2.5481,-2.5479,-2.5522,-2.5519,-2.5664,-2.5683,-2.5553,-2.5554,-2.5555,0,-2.5229,-2.5264,-2.5278,-2.5298,-2.5307,-2.5339,-2.5358,-2.5347,-2.5368,-2.539,-2.5418,-2.5451,-2.5476,-2.5534,-2.5538,-2.5569,-2.556,-2.5609,-2.5565,-2.5568,-2.5562,-2.556,-2.5563,-2.5618,-2.562,-2.5621,-2.5622,0,-2.5343,-2.5339,-2.5367,-2.5394,-2.5416,-2.5437,-2.5456,-2.5474,-2.5465,-2.5489,-2.5524,-2.5544,-2.5584,-2.5618,-2.5646,-2.5655,-2.5638,-2.5636,-2.5648,-2.5652,-2.5652,-2.5653,-2.5505,-2.5633,-2.5632,-2.5631,-2.563,-2.563,-2.5427,-2.5457,-2.5471,-2.5503,-2.5515,-2.5533,-2.5562,-2.5565,-2.5594,-2.5625,-2.5617,-2.5657,-2.5674,-2.571,-2.5722,-2.5754,-2.5736,-2.5753,-2.5757,-2.5762,-2.5767,-2.5647,-2.5759,-2.5759,-2.5758,-2.5758,-2.5758,0,-2.554,-2.5548,-2.5577,-2.5603,-2.5628,-2.5608,-2.5628,-2.565,-2.5685,-2.5702,-2.5728,-2.5768,-2.5801,-2.5807,-2.5838,-2.5862,-2.5855,-2.5871,-2.5869,-2.5872,-2.5781,-2.5767,-2.5876,-2.5876,-2.5876,-2.5876,-2.5876,-2.5876,-2.5602,-2.5652,-2.5649,-2.5705,-2.5713,-2.5751,-2.5764,-2.5781,-2.5794,-2.584,-2.5866,-2.587,-2.5883,-2.5915,-2.5944,-2.5945,-2.5957,-2.5976,-2.5975,-2.589,-2.5878,-2.5867,-2.5854,-2.5979,-2.5979,-2.6063,-2.6063,-2.6064]},{"header":{"parameterUnit":"m.s-1","parameterCategory":1,"la1":30.2991,"la2":30.254,"lo1":-89.0895,"lo2":-89.0444,"dy":0.0017,"dx":0.0017,"nx":28,"ny":28,"refTime":"2026-01-04T09:00:00:Z","depth":0,"parameterNumber":3,"parameterNumberName":"V-component_of_WINDS"},"data":[0,0,0,0,0,0,0,0,0,0,0,0,0,0,0,0,0,0,0,0,0,0,0,0,0,0,0,0,0,0,0,0,0,0,0,0,0,0,0,0,0,0,0,0,0,0,0,0,0,0,0,0,0,0,0,0,0,0,-1.0282,-1.0282,0,-1.0296,-1.0296,-1.0296,-1.0283,-1.0283,-1.0282,-1.0282,-1.0296,-1.0296,-1.0297,0,0,0,0,0,0,0,0,0,0,0,0,0,-1.0245,-1.0246,-1.0282,-1.0282,-1.0283,-1.0296,-1.0296,-1.0296,-1.0283,-1.0283,-1.0282,-1.0282,-1.0295,-1.0296,-1.0297,0,0,0,0,0,0,0,0,0,0,0,0,0,-1.026,-1.0246,-1.0282,-1.0278,-1.0278,-1.0296,-1.0296,-1.0296,-1.0284,-1.0283,-1.0282,-1.0281,-1.0295,-1.0296,-1.0297,-1.032,0,0,-1.0301,-1.0302,0,0,0,0,0,0,0,0,-1.0259,-1.0261,-1.0278,-1.0278,-1.0278,-1.0287,-1.0288,-1.0304,-1.0284,-1.0281,-1.0282,-1.0281,-1.0293,-1.0295,-1.0299,-1.0321,-1.0322,-1.0301,-1.0302,-1.0303,-1.0303,0,0,0,0,0,0,0,-1.0258,-1.0261,-1.0288,-1.0279,-1.0278,-1.0275,-1.0276,-1.0291,-1.0291,-1.0282,-1.0281,-1.0282,-1.0293,-1.0298,-1.0299,-1.0322,-1.0301,-1.0302,-1.0303,-1.0304,-1.0363,-1.0364,0,0,0,0,0,0,-1.0258,-1.026,-1.0287,-1.0288,-1.0267,-1.0276,-1.0278,-1.0285,-1.0291,-1.0292,-1.0283,-1.0282,-1.0296,-1.0298,-1.03,-1.0327,-1.0303,-1.0304,-1.0305,-1.0362,-1.0363,-1.0364,0,0,0,0,0,0,-1.0257,-1.026,-1.0287,-1.0274,-1.0277,-1.0278,-1.0286,-1.0286,-1.029,-1.0292,-1.0292,-1.0288,-1.0295,-1.0298,-1.0315,-1.0327,-1.0304,-1.0306,-1.0361,-1.0363,-1.0364,-1.0382,0,0,0,0,0,0,-1.0256,-1.026,-1.0269,-1.0274,-1.0278,-1.0302,-1.0287,-1.0286,-1.0292,-1.0291,-1.0297,-1.0297,-1.0295,-1.0313,-1.0317,-1.0329,-1.0307,-1.036,-1.0362,-1.0363,-1.038,-1.0384,-1.0387,0,0,0,0,0,-1.0255,-1.0274,-1.0269,-1.0273,-1.0289,-1.0303,-1.0305,-1.0302,-1.0293,-1.0302,-1.0304,-1.0297,-1.0325,-1.0315,-1.0319,-1.0331,-1.036,-1.0362,-1.0363,-1.0379,-1.0383,-1.0387,0,0,0,0,0,0,-1.027,-1.0274,-1.027,-1.0291,-1.0297,-1.0301,-1.0312,-1.0307,-1.0315,-1.0314,-1.031,-1.0311,-1.033,-1.0332,-1.0321,-1.0354,-1.0341,-1.0344,-1.0352,-1.0356,-1.0359,-1.0358,-1.0308,0,0,0,0,0,-1.0276,-1.0287,-1.029,-1.0309,-1.0312,-1.0311,-1.0317,-1.0315,-1.0321,-1.0323,-1.0326,-1.0332,-1.0342,-1.0349,-1.0358,-1.038,-1.0382,-1.0391,-1.0394,-1.0396,-1.0399,-1.0411,-1.0415,-1.037,-1.037,-1.037,0,0,-1.0288,-1.0292,-1.0299,-1.0312,-1.0316,-1.0328,-1.0314,-1.0327,-1.0335,-1.0325,-1.0342,-1.0344,-1.035,-1.037,-1.0379,-1.0373,-1.0411,-1.0399,-1.0401,-1.0402,-1.0413,-1.0417,-1.0421,-1.0372,-1.0371,-1.0371,0,0,-1.0317,-1.032,-1.0336,-1.0341,-1.0347,-1.0347,-1.035,-1.0355,-1.0356,-1.0373,-1.0365,-1.0375,-1.0393,-1.0398,-1.0403,-1.0432,-1.0426,-1.0435,-1.0452,-1.0464,-1.0467,-1.047,-1.0481,-1.0485,-1.0438,-1.0438,-1.0438,0,-1.0331,-1.0349,-1.0345,-1.0359,-1.0364,-1.0355,-1.0371,-1.0375,-1.0385,-1.0389,-1.0381,-1.0403,-1.0407,-1.0428,-1.0435,-1.0439,-1.0443,-1.0435,-1.0467,-1.047,-1.0473,-1.0483,-1.0488,-1.0439,-1.0439,-1.0439,-1.0438,0,-1.0366,-1.0379,-1.0391,-1.04,-1.0407,-1.0421,-1.042,-1.0427,-1.0423,-1.0424,-1.0441,-1.0444,-1.0455,-1.0459,-1.0456,-1.048,-1.0476,-1.0468,-1.0455,-1.0478,-1.0488,-1.0492,-1.044,-1.044,-1.044,-1.0439,0,0,-1.0406,-1.0413,-1.0417,-1.0421,-1.0427,-1.0437,-1.045,-1.046,-1.0467,-1.0473,-1.0485,-1.05,-1.0492,-1.0498,-1.0495,-1.0505,-1.0528,-1.0496,-1.0496,-1.0502,-1.0555,-1.0562,-1.0567,-1.0524,-1.0525,-1.0525,-1.0555,0,-1.0436,-1.046,-1.0457,-1.0481,-1.0492,-1.0483,-1.0495,-1.05,-1.05,-1.051,-1.051,-1.0521,-1.051,-1.0513,-1.0523,-1.0524,-1.0539,-1.0521,-1.0535,-1.0536,-1.0535,-1.0572,-1.0579,-1.0607,-1.0559,-1.0559,-1.056,0,-1.0473,-1.0481,-1.0506,-1.051,-1.0515,-1.0526,-1.0534,-1.0543,-1.0549,-1.0548,-1.0554,-1.0549,-1.0562,-1.0549,-1.0568,-1.0556,-1.0561,-1.0562,-1.0563,-1.0565,-1.055,-1.0576,-1.0615,-1.062,-1.0566,-1.0565,-1.0565,0,-1.0501,-1.0517,-1.0534,-1.0538,-1.0543,-1.0551,-1.0553,-1.0558,-1.0564,-1.0571,-1.0575,-1.0584,-1.0589,-1.0595,-1.0593,-1.0583,-1.0613,-1.0598,-1.0613,-1.0613,-1.0621,-1.062,-1.0663,-1.0622,-1.0622,-1.0622,-1.0622,0,-1.0534,-1.055,-1.0547,-1.0557,-1.0575,-1.057,-1.0587,-1.0588,-1.0592,-1.0603,-1.0595,-1.0605,-1.06,-1.061,-1.0608,-1.0624,-1.0626,-1.0627,-1.0626,-1.0628,-1.0628,-1.0632,-1.0631,-1.0623,-1.0623,-1.0623,-1.0623,0,-1.0569,-1.0567,-1.0585,-1.0588,-1.0589,-1.0601,-1.0604,-1.0614,-1.0613,-1.0626,-1.0629,-1.0628,-1.0639,-1.0637,-1.0649,-1.0648,-1.0668,-1.0665,-1.0667,-1.0666,-1.0681,-1.068,-1.0729,-1.0735,-1.069,-1.069,-1.0691,0,-1.0591,-1.0603,-1.0607,-1.0613,-1.0616,-1.0627,-1.0633,-1.0628,-1.0635,-1.0641,-1.0651,-1.0661,-1.0669,-1.0687,-1.0687,-1.0696,-1.0693,-1.071,-1.0695,-1.0696,-1.0695,-1.0694,-1.0696,-1.0713,-1.0714,-1.0714,-1.0714,0,-1.063,-1.0629,-1.0638,-1.0647,-1.0654,-1.0661,-1.0666,-1.0672,-1.0668,-1.0676,-1.0687,-1.0693,-1.0705,-1.0716,-1.0724,-1.0726,-1.072,-1.0719,-1.0723,-1.0725,-1.0726,-1.0727,-1.0676,-1.0718,-1.0718,-1.0717,-1.0717,-1.0717,-1.066,-1.067,-1.0674,-1.0685,-1.0688,-1.0694,-1.0703,-1.0704,-1.0713,-1.0723,-1.0719,-1.0732,-1.0736,-1.0747,-1.075,-1.076,-1.0754,-1.0759,-1.0761,-1.0762,-1.0765,-1.0724,-1.0761,-1.0761,-1.0761,-1.0761,-1.0761,0,-1.07,-1.0702,-1.0711,-1.072,-1.0728,-1.072,-1.0726,-1.0734,-1.0745,-1.0749,-1.0757,-1.077,-1.078,-1.0781,-1.079,-1.0798,-1.0795,-1.08,-1.08,-1.0801,-1.0769,-1.0765,-1.0802,-1.0802,-1.0802,-1.0802,-1.0802,-1.0802,-1.0722,-1.0739,-1.0737,-1.0756,-1.0758,-1.077,-1.0774,-1.0779,-1.0783,-1.0797,-1.0806,-1.0806,-1.0809,-1.0818,-1.0827,-1.0827,-1.0831,-1.0837,-1.0836,-1.0807,-1.0803,-1.0799,-1.0795,-1.0838,-1.0838,-1.0867,-1.0868,-1.0868]}]]